SCP
0 0 0 0 0 0 0 0 0 0 0 0 0 0 0 0 0 0 0 0 0 0
0 0 0 0 0 0 0 0 0 0 0 0 0 0 0 0 0 0 0 0 0 0
0 0 0 0 0 0 0 0 0 0 0 0 0 0 0 0 0 0 0 0 0 0
0 0 0 0 0 0 0 0 0 0 0 0 0 0 0 0 0 0 0 0 0 0
0 0 0 0 0 0 0 0 0 0 0 0 0 0 0 0 0 0 0 0 0 0
0 0 0 0 0 0 0 0 0 0 0 0 0 0 0 0 0 0 0 0 0 0
0 0 0 0 0 0 0 0 0 0 0 0 0 0 0 0 0 0 0 0 0 0
0 0 0 0 0 0 0 0 0 -0 -0 -0 -0 0 0 0 0 0 0 0 0 0
0 0 0 0 0 0 0 0 0 -0 -0 -0 0 0 0 0 0 0 0 0 0 0
0 0 0 0 0 0 0 0 0 0 0 0 0 0 0 0 0 0 0 0 0 0
0 0 0 0 0 0 0 0 0 0 0 0 0 0 0 0 0 0 0 0 0 0
0 0 0 0 0 0 0 0 0 0 0 0 0 0 0 0 0 0 0 0 0 0
0 0 0 0 0 0 0 0 0 0 0 0 0 0 0 0 0 0 0 0 0 0
0 0 0 0 0 0 0 0 0 0 0 0 0 0 0 0 0 0 0 0 0 0
Wind_Speed_500mb
16 14 13 12 10 11 15 19 24 28 30 32 34 38 42 45 46 45 47 49 50 52
10 9 9 10 11 13 15 18 22 26 30 33 36 39 41 44 46 47 49 52 53 55
9 6 4 6 10 15 21 26 30 34 37 40 42 43 45 48 49 50 52 53 55 57
2 1 6 12 18 23 28 33 37 39 42 43 45 45 46 47 48 49 51 52 54 58
3 8 13 19 25 30 33 36 38 40 42 44 45 46 47 49 48 49 51 53 53 55
10 15 19 24 27 30 34 37 40 43 46 48 49 50 49 49 49 51 53 54 55 58
13 16 19 21 26 32 38 42 45 48 50 52 53 52 52 53 57 58 58 58 57 60
16 16 17 24 30 37 44 49 52 56 56 57 57 56 56 59 62 63 63 62 60 56
17 17 23 30 38 46 52 56 58 59 59 59 60 58 59 62 66 67 66 65 61 59
19 25 32 40 48 54 58 62 63 62 61 63 64 63 64 65 69 71 70 66 63 66
25 33 41 49 55 61 63 65 64 63 61 63 63 66 69 70 71 72 70 66 58 54
32 41 51 59 62 65 65 64 60 59 63 66 67 67 68 68 68 70 58 53 56 55
44 57 63 63 66 65 62 60 62 65 64 63 67 67 67 64 61 60 63 58 62 62
51 60 61 63 61 58 57 59 63 63 63 64 69 72 72 68 58 57 63 64 71 72
Wind_Direction_500mb
282 289 299 311 318 310 304 304 307 310 311 309 306 303 301 300 302 302 300 297 295 292
278 289 302 314 318 318 319 321 321 317 315 312 310 307 304 303 303 301 300 298 296 293
282 296 331 352 341 330 323 319 318 317 316 315 312 310 307 305 304 301 299 296 294 292
164 351 340 330 325 324 325 325 324 323 322 321 320 317 314 311 308 304 300 297 295 292
273 318 325 325 328 331 332 332 331 330 328 326 323 319 317 314 309 304 301 299 294 289
301 317 322 330 336 340 340 339 338 336 333 330 327 325 323 316 312 309 305 302 298 296
294 312 326 338 345 345 343 341 338 336 334 332 329 329 326 320 315 312 308 305 301 297
295 310 325 331 334 336 337 336 335 334 331 329 328 330 326 320 316 314 310 305 302 296
289 300 315 323 328 330 331 331 330 328 325 324 324 327 324 319 314 313 312 309 302 294
288 305 316 321 324 326 327 326 325 323 322 321 322 324 321 317 313 311 311 310 305 299
299 311 317 319 322 323 322 321 321 321 319 317 321 324 323 319 312 309 308 307 309 301
309 316 321 319 319 318 318 317 315 317 323 323 323 325 324 320 313 310 308 302 303 304
322 320 305 313 314 316 313 315 321 319 320 320 322 328 328 320 311 307 304 302 301 305
303 301 308 310 310 311 316 315 317 317 319 320 323 325 326 324 318 307 308 305 303 308
Wind_Speed_850mb
16 14 13 12 10 11 15 19 24 28 30 32 34 38 42 45 46 45 47 49 50 52
10 9 9 10 11 13 15 18 22 26 30 33 36 39 41 44 46 47 49 52 53 55
9 6 4 6 10 15 21 26 30 34 37 40 42 43 45 48 49 50 52 53 55 57
2 1 6 12 18 23 28 33 37 39 42 43 45 45 46 47 48 49 51 52 54 58
3 8 13 19 25 30 33 36 38 40 42 44 45 46 47 49 48 49 51 53 53 55
10 15 19 24 27 30 34 37 40 43 46 48 49 50 49 49 49 51 53 54 55 58
13 16 19 21 26 32 38 42 45 48 50 52 53 52 52 53 57 58 58 58 57 60
16 16 17 24 30 37 44 49 52 56 56 57 57 56 56 59 62 63 63 62 60 56
17 17 23 30 38 46 52 56 58 59 59 59 60 58 59 62 66 67 66 65 61 59
19 25 32 40 48 54 58 62 63 62 61 63 64 63 64 65 69 71 70 66 63 66
25 33 41 49 55 61 63 65 64 63 61 63 63 66 69 70 71 72 70 66 58 54
32 41 51 59 62 65 65 64 60 59 63 66 67 67 68 68 68 70 58 53 56 55
44 57 63 63 66 65 62 60 62 65 64 63 67 67 67 64 61 60 63 58 62 62
51 60 61 63 61 58 57 59 63 63 63 64 69 72 72 68 58 57 63 64 71 72
Wind_Direction_850mb
282 289 299 311 318 310 304 304 307 310 311 309 306 303 301 300 302 302 300 297 295 292
278 289 302 314 318 318 319 321 321 317 315 312 310 307 304 303 303 301 300 298 296 293
282 296 331 352 341 330 323 319 318 317 316 315 312 310 307 305 304 301 299 296 294 292
164 351 340 330 325 324 325 325 324 323 322 321 320 317 314 311 308 304 300 297 295 292
273 318 325 325 328 331 332 332 331 330 328 326 323 319 317 314 309 304 301 299 294 289
301 317 322 330 336 340 340 339 338 336 333 330 327 325 323 316 312 309 305 302 298 296
294 312 326 338 345 345 343 341 338 336 334 332 329 329 326 320 315 312 308 305 301 297
295 310 325 331 334 336 337 336 335 334 331 329 328 330 326 320 316 314 310 305 302 296
289 300 315 323 328 330 331 331 330 328 325 324 324 327 324 319 314 313 312 309 302 294
288 305 316 321 324 326 327 326 325 323 322 321 322 324 321 317 313 311 311 310 305 299
299 311 317 319 322 323 322 321 321 321 319 317 321 324 323 319 312 309 308 307 309 301
309 316 321 319 319 318 318 317 315 317 323 323 323 325 324 320 313 310 308 302 303 304
322 320 305 313 314 316 313 315 321 319 320 320 322 328 328 320 311 307 304 302 301 305
303 301 308 310 310 311 316 315 317 317 319 320 323 325 326 324 318 307 308 305 303 308